[[{"header":{"parameterUnit":"m.s-1","parameterCategory":2,"la1":30.2991,"la2":30.254,"lo1":-89.0895,"lo2":-89.0444,"dy":0.0017,"dx":0.0017,"nx":28,"ny":28,"refTime":"2025-06-03T09:00:00:Z","depth":"0","parameterNumber":2,"parameterNumberName":"U-component_of_CURRENTS"},"data":[0,0,0,0,0,0,0,0,0,0,0,0,0,0,0,0,0,0,0,0,0,0,0,0,0,0,0,0,0,0,0,0,0,0,0,0,0,0,0,0,0,0,0,0,0,0,0,0,0,0,0,0,0,0,0,0,0,0,0.2553,0.2553,0,0.2529,0.2529,0.2528,0.2456,0.2455,0.2453,0.2452,0.2476,0.2477,0.2479,0,0,0,0,0,0,0,0,0,0,0,0,0,0.256,0.256,0.2553,0.2553,0.2553,0.2529,0.2529,0.2528,0.2456,0.2455,0.2453,0.2452,0.2475,0.2477,0.248,0,0,0,0,0,0,0,0,0,0,0,0,0,0.2546,0.256,0.2553,0.2516,0.2513,0.253,0.2529,0.2528,0.2457,0.2455,0.2453,0.2451,0.2474,0.2477,0.248,0.2537,0,0,0.2488,0.249,0,0,0,0,0,0,0,0,0.2547,0.2546,0.2522,0.2519,0.2515,0.2496,0.254,0.2535,0.2457,0.2475,0.2452,0.245,0.249,0.2492,0.2487,0.2539,0.254,0.2489,0.249,0.2492,0.2492,0,0,0,0,0,0,0,0.2548,0.2547,0.2541,0.2522,0.2518,0.251,0.2505,0.2538,0.2493,0.2473,0.2469,0.2471,0.2488,0.2484,0.2487,0.254,0.2489,0.2491,0.2493,0.2494,0.2647,0.265,0,0,0,0,0,0,0.2558,0.2548,0.2542,0.254,0.253,0.2511,0.2506,0.2502,0.2491,0.2488,0.2473,0.2468,0.2481,0.2484,0.2488,0.2535,0.2492,0.2494,0.2496,0.2645,0.2648,0.2651,0,0,0,0,0,0,0.2558,0.2557,0.2543,0.2546,0.2544,0.2513,0.251,0.2503,0.2489,0.2491,0.2488,0.2465,0.2479,0.2484,0.2518,0.2536,0.2495,0.2498,0.2642,0.2646,0.2649,0.2642,0,0,0,0,0,0,0.2558,0.2557,0.2565,0.2546,0.2544,0.2559,0.2512,0.2504,0.2496,0.2488,0.2485,0.2485,0.2478,0.2514,0.252,0.2539,0.25,0.2639,0.2644,0.2648,0.2639,0.2645,0.265,0,0,0,0,0,0.2558,0.2582,0.2566,0.2566,0.2553,0.2561,0.2559,0.2528,0.2497,0.2505,0.2498,0.2484,0.2547,0.2518,0.2525,0.2545,0.2637,0.2643,0.2648,0.2637,0.2644,0.265,0,0,0,0,0,0,0.2597,0.2577,0.2558,0.2575,0.257,0.2549,0.2561,0.2534,0.2533,0.2526,0.2511,0.2513,0.2552,0.2564,0.2532,0.2609,0.2593,0.26,0.2582,0.2589,0.2594,0.2597,0.2503,0,0,0,0,0,0.261,0.2611,0.2597,0.261,0.2612,0.2585,0.2585,0.2563,0.2558,0.2552,0.2546,0.2559,0.2586,0.2596,0.2624,0.2667,0.2695,0.269,0.2695,0.2699,0.2712,0.2762,0.2772,0.2668,0.2668,0.2668,0,0,0.2625,0.2618,0.2616,0.2617,0.2609,0.2611,0.2579,0.2584,0.2576,0.2562,0.2561,0.258,0.2605,0.2643,0.2662,0.2649,0.275,0.2706,0.2709,0.272,0.2768,0.2778,0.2787,0.2672,0.2671,0.2671,0,0,0.2656,0.2654,0.2661,0.266,0.2657,0.2643,0.2644,0.2627,0.2611,0.2625,0.2614,0.2644,0.2675,0.2691,0.2705,0.2768,0.2779,0.2783,0.2803,0.2851,0.2859,0.2866,0.2928,0.2941,0.278,0.278,0.278,0,0.2672,0.2674,0.2669,0.2678,0.2674,0.2655,0.2657,0.2652,0.2643,0.2643,0.2628,0.2683,0.2698,0.2744,0.2763,0.2776,0.2813,0.2764,0.2854,0.2862,0.2869,0.2931,0.2945,0.278,0.278,0.278,0.278,0,0.2701,0.2701,0.2713,0.2702,0.2707,0.2713,0.2701,0.2704,0.2684,0.2673,0.2711,0.2736,0.2765,0.2782,0.2788,0.2857,0.287,0.2852,0.2825,0.2878,0.2941,0.2956,0.278,0.278,0.278,0.278,0,0,0.2711,0.2726,0.2723,0.271,0.2715,0.271,0.2723,0.2722,0.2711,0.2731,0.2731,0.2795,0.2804,0.2826,0.2844,0.2889,0.2975,0.2897,0.2899,0.2938,0.3101,0.3045,0.3056,0.2967,0.2969,0.2971,0.3126,0,0.2719,0.2734,0.2739,0.2731,0.273,0.2726,0.2729,0.2731,0.2728,0.2731,0.2774,0.2793,0.282,0.2834,0.2889,0.2946,0.3013,0.2936,0.3063,0.3067,0.2993,0.3071,0.2955,0.3077,0.3141,0.3143,0.3145,0,0.2722,0.2729,0.2735,0.2721,0.2719,0.2716,0.2705,0.2707,0.2729,0.273,0.2774,0.2796,0.2879,0.288,0.3032,0.2982,0.3057,0.3106,0.3112,0.3072,0.3039,0.3036,0.3102,0.2918,0.3168,0.3166,0.3164,0,0.2699,0.2708,0.2707,0.2706,0.2706,0.2702,0.2698,0.2709,0.2703,0.2734,0.274,0.2829,0.2864,0.2979,0.3077,0.3068,0.3228,0.3221,0.3256,0.3254,0.3188,0.3174,0.307,0.3349,0.3349,0.3348,0.3348,0,0.2687,0.2673,0.2694,0.2687,0.2671,0.268,0.2662,0.2669,0.2685,0.2683,0.2741,0.2766,0.289,0.2981,0.309,0.3212,0.3247,0.3288,0.3294,0.3184,0.3169,0.3031,0.2961,0.3354,0.3353,0.3352,0.3351,0,0.2647,0.2667,0.2655,0.2662,0.2657,0.2643,0.2633,0.262,0.2647,0.2649,0.2665,0.2739,0.2858,0.2978,0.3147,0.3212,0.3231,0.3373,0.3239,0.3226,0.3078,0.3015,0.2943,0.2871,0.3462,0.3462,0.3462,0,0.2624,0.2621,0.2628,0.2614,0.2611,0.2596,0.2579,0.2597,0.2586,0.2633,0.2632,0.2737,0.2798,0.3011,0.3147,0.3326,0.3206,0.3304,0.3267,0.3067,0.3003,0.2903,0.2841,0.3198,0.3196,0.3194,0.3192,0,0.2566,0.2577,0.2574,0.2562,0.2543,0.2519,0.2503,0.2493,0.2515,0.2531,0.2564,0.2621,0.2809,0.2901,0.3095,0.3208,0.3087,0.3268,0.3095,0.2821,0.2676,0.2608,0.3107,0.3174,0.3176,0.3177,0.3178,0.3179,0.2511,0.2504,0.2508,0.248,0.2463,0.2428,0.2382,0.2386,0.2375,0.2366,0.2473,0.2518,0.2649,0.2909,0.2972,0.2948,0.3003,0.2887,0.2848,0.278,0.2627,0.3087,0.3122,0.3124,0.3125,0.3126,0.3127,0,0.2426,0.2427,0.2413,0.2377,0.2324,0.2346,0.2306,0.225,0.2211,0.2265,0.2294,0.2384,0.2448,0.2548,0.2608,0.2516,0.2475,0.242,0.2232,0.2213,0.265,0.2546,0.2413,0.2413,0.2413,0.2413,0.2413,0.2414,0.2377,0.2346,0.2346,0.224,0.2206,0.2109,0.207,0.2025,0.2033,0.2003,0.2026,0.2102,0.2172,0.2131,0.2017,0.2026,0.1851,0.1796,0.1782,0.2029,0.2067,0.2104,0.1984,0.1735,0.1734,0.1276,0.1272,0.1268]},{"header":{"parameterUnit":"m.s-1","parameterCategory":2,"la1":30.2991,"la2":30.254,"lo1":-89.0895,"lo2":-89.0444,"dy":0.0017,"dx":0.0017,"nx":28,"ny":28,"refTime":"2025-06-03T09:00:00:Z","depth":"0","parameterNumber":3,"parameterNumberName":"V-component_of_CURRENTS"},"data":[0,0,0,0,0,0,0,0,0,0,0,0,0,0,0,0,0,0,0,0,0,0,0,0,0,0,0,0,0,0,0,0,0,0,0,0,0,0,0,0,0,0,0,0,0,0,0,0,0,0,0,0,0,0,0,0,0,0,-0.019,-0.019,0,-0.0218,-0.0218,-0.0219,-0.0264,-0.0265,-0.0265,-0.0266,-0.0296,-0.0296,-0.0296,0,0,0,0,0,0,0,0,0,0,0,0,0,-0.0191,-0.019,-0.019,-0.019,-0.019,-0.0218,-0.0218,-0.0219,-0.0264,-0.0265,-0.0266,-0.0266,-0.0296,-0.0296,-0.0296,0,0,0,0,0,0,0,0,0,0,0,0,0,-0.0202,-0.019,-0.019,-0.0215,-0.0218,-0.0218,-0.0218,-0.0219,-0.0264,-0.0265,-0.0266,-0.0267,-0.0296,-0.0296,-0.0296,-0.0275,0,0,-0.0297,-0.0297,0,0,0,0,0,0,0,0,-0.0202,-0.0202,-0.0211,-0.0214,-0.0217,-0.0238,-0.023,-0.0238,-0.0263,-0.0247,-0.0266,-0.0267,-0.0275,-0.0277,-0.0281,-0.0277,-0.0278,-0.0297,-0.0297,-0.0297,-0.0297,0,0,0,0,0,0,0,-0.0201,-0.0202,-0.0202,-0.0212,-0.0215,-0.0231,-0.0234,-0.0232,-0.0255,-0.0249,-0.0252,-0.0253,-0.0277,-0.0281,-0.0282,-0.0278,-0.0297,-0.0297,-0.0297,-0.0297,-0.0207,-0.0205,0,0,0,0,0,0,-0.0193,-0.02,-0.0201,-0.0203,-0.0211,-0.023,-0.0233,-0.0231,-0.0256,-0.026,-0.0252,-0.0255,-0.028,-0.0282,-0.0284,-0.0223,-0.0297,-0.0297,-0.0297,-0.021,-0.0207,-0.0204,0,0,0,0,0,0,-0.0193,-0.0193,-0.02,-0.0202,-0.0204,-0.0228,-0.0225,-0.023,-0.0234,-0.0258,-0.0263,-0.0251,-0.0281,-0.0283,-0.0265,-0.0226,-0.0297,-0.0298,-0.0213,-0.0209,-0.0205,-0.0125,0,0,0,0,0,0,-0.0193,-0.0192,-0.0191,-0.0201,-0.0203,-0.0195,-0.0224,-0.023,-0.0233,-0.0237,-0.0258,-0.0262,-0.0282,-0.0265,-0.0265,-0.0228,-0.0298,-0.0216,-0.0211,-0.0207,-0.0131,-0.0119,-0.0109,0,0,0,0,0,-0.0193,-0.019,-0.019,-0.019,-0.0199,-0.0194,-0.0197,-0.0219,-0.0232,-0.0228,-0.0232,-0.0262,-0.0235,-0.0263,-0.0264,-0.0226,-0.0218,-0.0212,-0.0207,-0.0136,-0.0121,-0.0109,0,0,0,0,0,0,-0.02,-0.0194,-0.0195,-0.0193,-0.0189,-0.0202,-0.0204,-0.021,-0.0211,-0.0215,-0.0237,-0.024,-0.0208,-0.0222,-0.0252,-0.0182,-0.0228,-0.0223,-0.0173,-0.016,-0.0149,-0.0137,-0.0298,0,0,0,0,0,-0.0195,-0.0187,-0.0183,-0.0182,-0.0177,-0.0185,-0.0187,-0.0194,-0.0196,-0.0199,-0.0206,-0.0203,-0.0184,-0.0178,-0.0173,-0.0138,-0.015,-0.0109,-0.0098,-0.0089,-0.0077,-0.0053,-0.0039,-0.0186,-0.0186,-0.0186,0,0,-0.02,-0.0194,-0.0192,-0.0181,-0.0183,-0.0162,-0.019,-0.0185,-0.0162,-0.0199,-0.0172,-0.017,-0.0166,-0.0126,-0.0112,-0.0135,-0.0053,-0.0082,-0.0075,-0.0068,-0.0045,-0.0031,-0.0019,-0.0182,-0.0183,-0.0183,0,0,-0.0196,-0.0195,-0.0181,-0.0167,-0.0156,-0.0152,-0.0145,-0.0141,-0.0134,-0.0104,-0.0113,-0.0081,-0.0071,-0.0046,-0.0035,0.0045,0.0002,0.0044,0.011,0.0134,0.0146,0.0156,0.0154,0.0163,0.0052,0.0052,0.0052,0,-0.0201,-0.0177,-0.0177,-0.0153,-0.0134,-0.014,-0.0109,-0.0098,-0.0086,-0.0056,-0.0086,-0.0018,-0.0026,0.0054,0.0077,0.007,0.0061,0.0054,0.0147,0.0157,0.0166,0.0161,0.017,0.0057,0.0056,0.0056,0.0055,0,-0.0177,-0.0154,-0.0145,-0.0106,-0.0087,-0.0064,-0.0039,-0.0012,-0.0002,0.0019,0.0089,0.0093,0.0136,0.0146,0.013,0.021,0.0175,0.0153,0.0107,0.0185,0.0175,0.0184,0.0063,0.0062,0.006,0.0059,0,0,-0.0185,-0.0136,-0.013,-0.0092,-0.0055,-0.003,0.0022,0.0082,0.0135,0.0154,0.0231,0.0269,0.0274,0.029,0.0288,0.0309,0.0357,0.0259,0.0258,0.0247,0.039,0.0352,0.0356,0.0343,0.0345,0.0347,0.0355,0,-0.0158,-0.0102,-0.0081,-0.0012,0.0027,0.0057,0.0112,0.0167,0.0206,0.0276,0.0312,0.0368,0.0329,0.0355,0.0378,0.0366,0.0383,0.0356,0.0326,0.0325,0.0273,0.0367,0.0387,0.0395,0.0362,0.0364,0.0365,0,-0.0128,-0.0089,-0.0025,0.0062,0.0083,0.0124,0.0228,0.0277,0.0369,0.0401,0.0468,0.0482,0.0544,0.0484,0.0511,0.049,0.0451,0.0428,0.0427,0.037,0.0303,0.0316,0.0411,0.0321,0.0377,0.0376,0.0375,0,-0.0109,-0.0038,0.0019,0.0045,0.013,0.0178,0.0229,0.0319,0.0385,0.0481,0.0533,0.0598,0.0632,0.0614,0.0565,0.0538,0.0571,0.0527,0.0459,0.0453,0.0457,0.0449,0.0456,0.0544,0.0544,0.0544,0.0544,0,-0.0072,-0.002,0.0031,0.0069,0.0158,0.0205,0.031,0.0369,0.0469,0.0564,0.0596,0.0674,0.0662,0.0676,0.0614,0.057,0.061,0.0493,0.047,0.0484,0.0479,0.0386,0.0329,0.0544,0.0544,0.0544,0.0544,0,-0.0045,-0.0018,0.0058,0.014,0.017,0.0235,0.035,0.0431,0.0505,0.0628,0.066,0.0742,0.076,0.073,0.0705,0.0632,0.0549,0.0553,0.0558,0.0535,0.0373,0.032,0.032,0.0302,0.049,0.049,0.0489,0,-0.0018,0.0016,0.01,0.0148,0.0189,0.0281,0.0354,0.0444,0.0528,0.067,0.0736,0.0794,0.0858,0.0811,0.0709,0.0621,0.0541,0.0544,0.0504,0.0392,0.0316,0.0292,0.0275,0.0536,0.0536,0.0536,0.0536,0,0.0039,0.0055,0.0113,0.0198,0.0272,0.0365,0.0467,0.0535,0.0649,0.0743,0.0867,0.0928,0.0903,0.0855,0.0723,0.0646,0.0499,0.0536,0.0444,0.0383,0.0339,0.03,0.0474,0.0535,0.0535,0.0535,0.0535,0.0535,0.0081,0.0125,0.0186,0.0271,0.035,0.045,0.053,0.0632,0.0758,0.0912,0.0954,0.107,0.0986,0.0831,0.0696,0.0468,0.0472,0.0391,0.0343,0.0335,0.0304,0.0459,0.0472,0.0472,0.0471,0.0471,0.0471,0,0.0139,0.0185,0.0263,0.0363,0.045,0.0482,0.0613,0.0692,0.0827,0.0974,0.1082,0.1149,0.0993,0.0818,0.0514,0.032,0.0279,0.0218,0.0202,0.0199,0.0364,0.0351,0.0312,0.0312,0.0312,0.0312,0.0312,0.0312,0.0179,0.0253,0.0289,0.0433,0.0502,0.0615,0.0687,0.079,0.0908,0.1082,0.1198,0.1287,0.1171,0.0612,0.0231,0.0148,0.0043,0.0012,-0.0049,0.0051,0.0064,0.0076,0.0052,-0.0049,-0.005,-0.0161,-0.0163,-0.0164]}],[{"header":{"parameterUnit":"m.s-1","parameterCategory":2,"la1":30.2991,"la2":30.254,"lo1":-89.0895,"lo2":-89.0444,"dy":0.0017,"dx":0.0017,"nx":28,"ny":28,"refTime":"2025-06-03T09:00:00:Z","depth":"2","parameterNumber":2,"parameterNumberName":"U-component_of_CURRENTS"},"data":[0,0,0,0,0,0,0,0,0,0,0,0,0,0,0,0,0,0,0,0,0,0,0,0,0,0,0,0,0,0,0,0,0,0,0,0,0,0,0,0,0,0,0,0,0,0,0,0,0,0,0,0,0,0,0,0,0,0,0.1974,0.1974,0,0.1967,0.1967,0.1967,0.2055,0.2057,0.206,0.2062,0.2095,0.2094,0.2092,0,0,0,0,0,0,0,0,0,0,0,0,0,0.2073,0.2071,0.1974,0.1974,0.1974,0.1967,0.1967,0.1967,0.2054,0.2057,0.2061,0.2063,0.2096,0.2094,0.2092,0,0,0,0,0,0,0,0,0,0,0,0,0,0.2043,0.207,0.1974,0.2018,0.2022,0.1967,0.1967,0.1967,0.2054,0.2058,0.2061,0.2065,0.2096,0.2094,0.2092,0.2003,0,0,0.2085,0.2084,0,0,0,0,0,0,0,0,0.2045,0.2039,0.2012,0.2015,0.2019,0.2017,0.2014,0.1981,0.2053,0.204,0.2062,0.2067,0.207,0.2071,0.2059,0.2005,0.2006,0.2085,0.2084,0.2083,0.2082,0,0,0,0,0,0,0,0.2047,0.204,0.197,0.2011,0.2016,0.2041,0.2041,0.2008,0.2034,0.2042,0.2048,0.2048,0.2073,0.2061,0.206,0.2007,0.2085,0.2083,0.2082,0.2081,0.2029,0.2029,0,0,0,0,0,0,0.2044,0.2041,0.1971,0.197,0.2043,0.2037,0.2036,0.2013,0.2034,0.2041,0.2045,0.2052,0.2063,0.2063,0.2062,0.2092,0.2083,0.2081,0.208,0.2029,0.2029,0.2029,0,0,0,0,0,0,0.2046,0.2037,0.1971,0.2009,0.2003,0.2031,0.2004,0.2011,0.2041,0.2036,0.2045,0.2074,0.2066,0.2065,0.2066,0.2089,0.208,0.2078,0.2029,0.2029,0.2029,0.2066,0,0,0,0,0,0,0.2048,0.2037,0.203,0.2007,0.2,0.1954,0.2001,0.2008,0.2033,0.2044,0.2062,0.2067,0.2068,0.2069,0.2064,0.2086,0.2076,0.2029,0.2029,0.2029,0.2065,0.2067,0.2069,0,0,0,0,0,0.2052,0.2014,0.2029,0.2022,0.1985,0.1953,0.1952,0.1985,0.2031,0.203,0.2055,0.2069,0.2066,0.2066,0.206,0.2083,0.2029,0.2029,0.2029,0.2064,0.2066,0.2069,0,0,0,0,0,0,0.2047,0.2018,0.2035,0.1991,0.1986,0.197,0.197,0.1995,0.201,0.2039,0.205,0.2054,0.2065,0.2056,0.2057,0.2067,0.2055,0.2054,0.2084,0.2086,0.2088,0.211,0.2074,0,0,0,0,0,0.204,0.2015,0.1996,0.1967,0.1964,0.1975,0.1974,0.1997,0.2001,0.2016,0.2031,0.2047,0.2045,0.2057,0.2044,0.2035,0.2044,0.205,0.2052,0.2054,0.2066,0.209,0.2096,0.2028,0.2028,0.2028,0,0,0.2033,0.2014,0.2002,0.1967,0.1969,0.1954,0.1985,0.1985,0.1993,0.201,0.2034,0.2045,0.2041,0.2044,0.205,0.2052,0.2076,0.2054,0.2056,0.2067,0.209,0.2097,0.2103,0.2028,0.2028,0.2028,0,0,0.2002,0.1988,0.1965,0.1956,0.1958,0.1955,0.1963,0.1966,0.1994,0.1999,0.2026,0.2053,0.2044,0.2058,0.206,0.2058,0.2079,0.2064,0.2103,0.2125,0.2132,0.2137,0.2156,0.2163,0.2076,0.2076,0.2076,0,0.2009,0.1965,0.1956,0.1937,0.1938,0.196,0.1951,0.1955,0.1968,0.1994,0.2018,0.2048,0.205,0.2068,0.2087,0.2066,0.2086,0.2097,0.2131,0.2136,0.2142,0.2159,0.2167,0.2077,0.2077,0.2077,0.2077,0,0.1957,0.1943,0.1927,0.1914,0.1909,0.19,0.1908,0.193,0.1975,0.1996,0.204,0.2049,0.2085,0.2087,0.2092,0.2135,0.2138,0.2124,0.213,0.2151,0.2167,0.2175,0.208,0.2079,0.2079,0.2078,0,0,0.194,0.1902,0.1907,0.191,0.1904,0.1894,0.1909,0.1929,0.1967,0.2,0.205,0.2072,0.212,0.2126,0.2142,0.2171,0.2227,0.2183,0.2183,0.2212,0.229,0.2267,0.2272,0.2233,0.2235,0.2236,0.2287,0,0.1923,0.1884,0.1873,0.1865,0.1853,0.188,0.1889,0.1921,0.1965,0.2011,0.2058,0.21,0.212,0.2163,0.2195,0.2217,0.2249,0.2216,0.2256,0.2257,0.2243,0.228,0.1995,0.2014,0.2293,0.2295,0.2296,0,0.1891,0.1872,0.1855,0.1858,0.1859,0.1869,0.1921,0.1933,0.1995,0.2039,0.2108,0.2141,0.2206,0.2211,0.2283,0.227,0.2295,0.2305,0.2306,0.228,0.2247,0.2037,0.2017,0.2307,0.2307,0.2306,0.2305,0,0.1889,0.1868,0.1861,0.1858,0.1857,0.1891,0.1912,0.1966,0.1992,0.2079,0.2117,0.2189,0.2237,0.2284,0.2334,0.2323,0.2398,0.2371,0.2366,0.2364,0.2125,0.21,0.2417,0.2417,0.2417,0.2417,0.2417,0,0.1865,0.1867,0.1873,0.1869,0.1892,0.1906,0.1954,0.1991,0.2049,0.2079,0.2151,0.2185,0.2264,0.2314,0.235,0.2394,0.2417,0.2388,0.2383,0.2129,0.2105,0.2359,0.2351,0.2419,0.2418,0.2418,0.2418,0,0.1858,0.1855,0.1854,0.1872,0.189,0.1919,0.197,0.1991,0.2062,0.2105,0.2137,0.2204,0.2285,0.2347,0.2416,0.2409,0.2448,0.2452,0.2157,0.2118,0.2392,0.2386,0.245,0.245,0.245,0.245,0.245,0,0.1839,0.1838,0.1863,0.1872,0.1891,0.1935,0.1952,0.2008,0.2023,0.2103,0.2107,0.2209,0.2251,0.235,0.2311,0.2354,0.2473,0.217,0.2095,0.2411,0.2399,0.2393,0.2387,0.1782,0.1776,0.1771,0.1768,0,0.1806,0.1833,0.1827,0.1851,0.1878,0.1891,0.1926,0.1932,0.1986,0.2025,0.207,0.2117,0.2158,0.2063,0.2122,0.2109,0.2142,0.2083,0.2471,0.1839,0.179,0.1776,0.179,0.1727,0.1731,0.1734,0.1736,0.1738,0.1787,0.1782,0.1788,0.1811,0.1835,0.1837,0.1837,0.1855,0.1872,0.1895,0.1972,0.1934,0.1882,0.1802,0.1785,0.1761,0.1913,0.1848,0.1857,0.1872,0.1807,0.1763,0.1681,0.1685,0.1688,0.1691,0.1693,0,0.1725,0.1735,0.1742,0.1745,0.1741,0.1802,0.1797,0.1765,0.1761,0.1741,0.1786,0.1492,0.1441,0.1449,0.1291,0.1322,0.1249,0.1342,0.1207,0.1246,0.1282,0.1183,0.0894,0.0893,0.0892,0.0891,0,0,0.1685,0.1655,0.1656,0.1639,0.1678,0.167,0.1672,0.1631,0.1569,0.1404,0.1295,0.1388,0.1326,0.1059,0.1042,0.0958,0.1103,0.0918,0.1538,0.1412,0.1447,0.1535,0.1424,0,0,0,0,0]},{"header":{"parameterUnit":"m.s-1","parameterCategory":2,"la1":30.2991,"la2":30.254,"lo1":-89.0895,"lo2":-89.0444,"dy":0.0017,"dx":0.0017,"nx":28,"ny":28,"refTime":"2025-06-03T09:00:00:Z","depth":"2","parameterNumber":3,"parameterNumberName":"V-component_of_CURRENTS"},"data":[0,0,0,0,0,0,0,0,0,0,0,0,0,0,0,0,0,0,0,0,0,0,0,0,0,0,0,0,0,0,0,0,0,0,0,0,0,0,0,0,0,0,0,0,0,0,0,0,0,0,0,0,0,0,0,0,0,0,-0.0506,-0.0507,0,-0.0574,-0.0575,-0.0576,-0.0581,-0.058,-0.0579,-0.0578,-0.0667,-0.0671,-0.0674,0,0,0,0,0,0,0,0,0,0,0,0,0,-0.0423,-0.0424,-0.0506,-0.0507,-0.0508,-0.0574,-0.0575,-0.0576,-0.0581,-0.058,-0.0579,-0.0578,-0.0666,-0.067,-0.0674,0,0,0,0,0,0,0,0,0,0,0,0,0,-0.0473,-0.0425,-0.0506,-0.0517,-0.0519,-0.0574,-0.0575,-0.0577,-0.0581,-0.058,-0.0578,-0.0577,-0.0665,-0.067,-0.0675,-0.0731,0,0,-0.0689,-0.0691,0,0,0,0,0,0,0,0,-0.047,-0.0476,-0.0515,-0.0516,-0.0518,-0.0567,-0.0579,-0.0629,-0.0581,-0.0559,-0.0578,-0.0576,-0.0636,-0.0643,-0.066,-0.0735,-0.0739,-0.069,-0.0693,-0.0695,-0.0696,0,0,0,0,0,0,0,-0.0466,-0.0473,-0.0535,-0.0516,-0.0518,-0.0533,-0.0538,-0.0588,-0.0605,-0.056,-0.0561,-0.0567,-0.0637,-0.0656,-0.0662,-0.074,-0.069,-0.0694,-0.0697,-0.0699,-0.083,-0.083,0,0,0,0,0,0,-0.0455,-0.047,-0.0532,-0.0536,-0.0489,-0.0535,-0.0542,-0.0553,-0.0604,-0.061,-0.0568,-0.0567,-0.0648,-0.0657,-0.0666,-0.0694,-0.0695,-0.0699,-0.0702,-0.0829,-0.083,-0.0831,0,0,0,0,0,0,-0.0453,-0.046,-0.053,-0.0503,-0.0513,-0.0538,-0.0551,-0.0555,-0.0573,-0.0609,-0.0615,-0.058,-0.0647,-0.0659,-0.0703,-0.0699,-0.0701,-0.0706,-0.0828,-0.0829,-0.083,-0.0778,0,0,0,0,0,0,-0.0451,-0.0459,-0.0471,-0.0503,-0.0514,-0.0559,-0.0553,-0.0558,-0.0578,-0.0577,-0.0623,-0.0629,-0.0647,-0.0696,-0.0708,-0.0706,-0.0709,-0.0828,-0.0829,-0.083,-0.0779,-0.0777,-0.0775,0,0,0,0,0,-0.0448,-0.0465,-0.0472,-0.0479,-0.0527,-0.0559,-0.0567,-0.0581,-0.058,-0.0591,-0.0616,-0.0628,-0.0711,-0.0701,-0.0715,-0.0713,-0.0827,-0.0829,-0.083,-0.078,-0.0777,-0.0775,0,0,0,0,0,0,-0.0439,-0.0468,-0.0476,-0.0502,-0.0527,-0.0559,-0.0576,-0.0586,-0.0617,-0.0616,-0.0646,-0.0655,-0.0688,-0.0719,-0.0707,-0.0756,-0.0768,-0.0772,-0.0725,-0.0723,-0.0721,-0.0685,-0.0713,0,0,0,0,0,-0.0443,-0.0461,-0.049,-0.0513,-0.0525,-0.0553,-0.0571,-0.0578,-0.0606,-0.0618,-0.0647,-0.068,-0.0709,-0.0728,-0.0763,-0.0803,-0.081,-0.081,-0.0808,-0.0806,-0.0787,-0.0802,-0.0799,-0.0835,-0.0835,-0.0835,0,0,-0.0446,-0.0466,-0.0476,-0.0512,-0.0535,-0.0548,-0.0561,-0.0585,-0.059,-0.0626,-0.0651,-0.068,-0.0719,-0.0748,-0.0766,-0.0771,-0.0801,-0.0807,-0.0805,-0.0787,-0.0803,-0.0799,-0.0796,-0.0836,-0.0836,-0.0836,0,0,-0.0452,-0.048,-0.049,-0.0509,-0.0538,-0.0554,-0.0559,-0.0591,-0.0599,-0.0633,-0.0648,-0.0671,-0.0735,-0.0744,-0.076,-0.0777,-0.0791,-0.0795,-0.0756,-0.0771,-0.0767,-0.0764,-0.0766,-0.0763,-0.0793,-0.0792,-0.0792,0,-0.0452,-0.0471,-0.05,-0.0512,-0.0522,-0.0552,-0.0558,-0.0577,-0.0616,-0.0618,-0.0633,-0.0688,-0.0725,-0.0735,-0.0733,-0.0769,-0.0776,-0.0756,-0.0765,-0.0762,-0.076,-0.0762,-0.076,-0.079,-0.079,-0.0791,-0.0791,0,-0.0459,-0.0475,-0.0486,-0.0505,-0.0522,-0.0536,-0.0557,-0.0571,-0.0587,-0.0599,-0.0618,-0.066,-0.0682,-0.0702,-0.0723,-0.0722,-0.0731,-0.0759,-0.0762,-0.0752,-0.0757,-0.0755,-0.0787,-0.0788,-0.0788,-0.0789,0,0,-0.0453,-0.0481,-0.0485,-0.0483,-0.0515,-0.0524,-0.0536,-0.0547,-0.0534,-0.0574,-0.0559,-0.0608,-0.0616,-0.0635,-0.0662,-0.0673,-0.0668,-0.0702,-0.0704,-0.0685,-0.0688,-0.058,-0.0568,-0.0696,-0.0695,-0.0695,-0.0695,0,-0.0447,-0.0456,-0.0474,-0.0476,-0.0479,-0.05,-0.0499,-0.051,-0.0523,-0.0519,-0.0548,-0.0553,-0.0595,-0.0595,-0.0613,-0.0651,-0.0662,-0.0664,-0.0714,-0.0715,-0.0606,-0.0562,-0.0565,-0.0555,-0.0694,-0.0694,-0.0694,0,-0.0445,-0.0448,-0.0449,-0.0442,-0.0444,-0.0448,-0.0438,-0.0441,-0.0444,-0.0447,-0.0455,-0.0475,-0.0487,-0.0529,-0.0576,-0.0574,-0.0621,-0.0655,-0.0657,-0.0567,-0.0603,-0.059,-0.0547,-0.0691,-0.0692,-0.0692,-0.0692,0,-0.042,-0.0428,-0.0423,-0.0427,-0.0428,-0.0423,-0.0422,-0.0422,-0.0404,-0.0398,-0.0374,-0.0404,-0.0402,-0.0465,-0.0518,-0.0555,-0.0558,-0.0628,-0.0575,-0.0569,-0.0583,-0.0577,-0.0659,-0.0659,-0.0659,-0.0659,-0.0659,0,-0.0405,-0.0402,-0.041,-0.0408,-0.0382,-0.0394,-0.0363,-0.036,-0.0339,-0.0294,-0.0331,-0.0287,-0.0385,-0.0396,-0.0477,-0.0483,-0.0529,-0.0537,-0.0549,-0.0564,-0.0556,-0.0691,-0.0694,-0.0659,-0.0659,-0.0659,-0.0659,0,-0.0386,-0.0396,-0.0385,-0.038,-0.0374,-0.0358,-0.0329,-0.0296,-0.0279,-0.022,-0.0209,-0.02,-0.0193,-0.0267,-0.0347,-0.0401,-0.0444,-0.0444,-0.0431,-0.0438,-0.0468,-0.047,-0.0401,-0.0397,-0.0393,-0.039,-0.0388,0,-0.0378,-0.0373,-0.0364,-0.0349,-0.0351,-0.0326,-0.0297,-0.0274,-0.0231,-0.0151,-0.0108,-0.0073,0.0005,-0.0035,-0.0151,-0.023,-0.0313,-0.0287,-0.0352,-0.0416,-0.0436,-0.0443,-0.0449,-0.0374,-0.0371,-0.0369,-0.0368,0,-0.0355,-0.0358,-0.0346,-0.0317,-0.0293,-0.0249,-0.0208,-0.0156,-0.0103,-0.0018,0.0104,0.0184,0.0167,0.0127,0.0041,-0.0043,-0.0271,-0.0245,-0.0326,-0.0407,-0.0381,-0.0403,-0.0413,-0.0351,-0.0352,-0.0354,-0.0355,-0.0355,-0.0338,-0.0319,-0.0302,-0.0271,-0.0238,-0.0165,-0.0103,-0.002,0.0101,0.0277,0.0304,0.0451,0.0329,0.0281,0.0137,-0.006,-0.0084,-0.0188,-0.0199,-0.0211,-0.0175,-0.0142,-0.006,-0.0061,-0.0061,-0.0061,-0.0061,0,-0.0298,-0.0281,-0.025,-0.0199,-0.0141,-0.0139,-0.003,0.0072,0.0254,0.0431,0.0597,0.0565,0.0541,0.0366,0.01,-0.0024,-0.011,-0.008,-0.0198,-0.0212,-0.0225,-0.0196,-0.0084,-0.0084,-0.0084,-0.0085,0,0,-0.0273,-0.0229,-0.0206,-0.011,-0.0077,0.0026,0.0103,0.0268,0.0411,0.0649,0.0753,0.0889,0.0637,0.0452,0.0236,0.0067,-0.0038,0.0041,0.0074,-0.0053,-0.0064,-0.027,-0.0236,0,0,0,0,0]}],[{"header":{"parameterUnit":"m.s-1","parameterCategory":2,"la1":30.2991,"la2":30.254,"lo1":-89.0895,"lo2":-89.0444,"dy":0.0017,"dx":0.0017,"nx":28,"ny":28,"refTime":"2025-06-03T09:00:00:Z","depth":"4","parameterNumber":2,"parameterNumberName":"U-component_of_CURRENTS"},"data":[0,0,0,0,0,0,0,0,0,0,0,0,0,0,0,0,0,0,0,0,0,0,0,0,0,0,0,0,0,0,0,0,0,0,0,0,0,0,0,0,0,0,0,0,0,0,0,0,0,0,0,0,0,0,0,0,0,0,-0.0077,-0.0077,0,-0.0062,-0.0061,-0.0061,-0.0013,-0.0013,-0.0012,-0.0012,0.0227,0.0232,0.0238,0,0,0,0,0,0,0,0,0,0,0,0,0,-0.0093,-0.0092,-0.0077,-0.0077,-0.0077,-0.0062,-0.0061,-0.0061,-0.0014,-0.0013,-0.0012,-0.0011,0.0225,0.0232,0.0239,0,0,0,0,0,0,0,0,0,0,0,0,0,-0.0078,-0.0092,-0.0077,-0.0055,-0.0053,-0.0062,-0.0061,-0.006,-0.0014,-0.0013,-0.0012,-0.0011,0.0223,0.0231,0.024,0.0273,0,0,0.0266,0.027,0,0,0,0,0,0,0,0,-0.0079,-0.0077,-0.0058,-0.0057,-0.0055,-0.0042,0.002,0.0061,-0.0014,-0.0024,-0.0011,-0.001,0.0154,0.0168,0.0172,0.0284,0.0295,0.0267,0.0272,0.0275,0.0278,0,0,0,0,0,0,0,-0.008,-0.0078,-0.0067,-0.0059,-0.0057,-0.0056,-0.0052,0.0027,0.0067,-0.0023,-0.0021,-0.0026,0.0157,0.0163,0.0179,0.0298,0.0266,0.0274,0.0279,0.0283,0.0598,0.0601,0,0,0,0,0,0,-0.009,-0.0079,-0.0067,-0.0067,-0.007,-0.0057,-0.0052,-0.0044,0.0061,0.0075,-0.0027,-0.0024,0.0148,0.0168,0.0187,0.0375,0.0275,0.0283,0.0288,0.0595,0.0599,0.0602,0,0,0,0,0,0,-0.009,-0.0089,-0.0068,-0.0077,-0.0074,-0.0058,-0.0049,-0.0044,-0.0012,0.0055,0.0074,0.0003,0.015,0.0175,0.0309,0.038,0.0287,0.0295,0.0591,0.0596,0.0601,0.0661,0,0,0,0,0,0,-0.0091,-0.0089,-0.0081,-0.0077,-0.0074,-0.0059,-0.005,-0.0045,-0.0021,-0.0016,0.0087,0.0107,0.0152,0.0296,0.0317,0.039,0.0302,0.0587,0.0593,0.0599,0.0655,0.0667,0.0678,0,0,0,0,0,-0.0091,-0.0084,-0.008,-0.0079,-0.0065,-0.0059,-0.0057,-0.004,-0.002,-0.0006,0.009,0.0106,0.0349,0.0306,0.033,0.0407,0.0584,0.0592,0.0599,0.065,0.0665,0.0678,0,0,0,0,0,0,-0.0087,-0.0079,-0.0074,-0.0064,-0.0058,-0.0052,-0.0045,-0.0027,0.0052,0.0076,0.0151,0.018,0.0323,0.0355,0.0305,0.0515,0.0468,0.048,0.0499,0.0514,0.0525,0.0515,0.0309,0,0,0,0,0,-0.0085,-0.0081,-0.0071,-0.0069,-0.0061,-0.0047,-0.004,-0.0023,0.0035,0.0068,0.0168,0.0269,0.0364,0.043,0.0517,0.0633,0.0612,0.0698,0.0709,0.0719,0.0729,0.0742,0.0754,0.0626,0.0626,0.0626,0,0,-0.0089,-0.0085,-0.0083,-0.0069,-0.0062,-0.0029,-0.0038,-0.002,0.0045,0.0088,0.0246,0.0319,0.0404,0.0539,0.0606,0.0582,0.0744,0.0728,0.0735,0.0741,0.075,0.0762,0.0773,0.0631,0.063,0.0629,0,0,-0.0096,-0.0083,-0.0077,-0.0062,-0.0048,-0.0021,-0.0007,0.0048,0.0111,0.025,0.0299,0.0409,0.0587,0.0645,0.0696,0.0821,0.0801,0.0865,0.0925,0.0937,0.0947,0.0955,0.0926,0.0931,0.0873,0.0873,0.0873,0,-0.0097,-0.0081,-0.0076,-0.0058,-0.0037,-0.0005,0.0029,0.0096,0.0207,0.0285,0.0322,0.0568,0.0635,0.0764,0.0819,0.0847,0.0838,0.0861,0.0948,0.0956,0.0963,0.0931,0.0936,0.0877,0.0876,0.0876,0.0876,0,-0.0089,-0.0071,-0.0065,-0.0017,0.0011,0.0038,0.0122,0.0219,0.0325,0.0405,0.059,0.0685,0.0826,0.0866,0.0897,0.0995,0.0965,0.0952,0.09,0.0978,0.0941,0.0945,0.0882,0.0881,0.088,0.0879,0,0,-0.0099,-0.0063,-0.0058,-0.0031,0.0039,0.0065,0.0198,0.0322,0.0431,0.0583,0.0721,0.089,0.0943,0.1002,0.1039,0.1061,0.11,0.1046,0.1044,0.0994,0.1107,0.0948,0.0936,0.1105,0.1107,0.1108,0.1052,0,-0.0087,-0.0052,-0.0024,0.0042,0.0074,0.0157,0.0281,0.0404,0.0547,0.0707,0.0812,0.0966,0.0993,0.1068,0.11,0.111,0.1118,0.1115,0.1059,0.1057,0.0887,0.0938,0.1114,0.1054,0.1055,0.1056,0.1056,0,-0.0077,-0.0053,0.0001,0.0087,0.0114,0.0189,0.0377,0.0497,0.0704,0.0818,0.0968,0.1049,0.1154,0.1144,0.1191,0.1194,0.1168,0.1148,0.1145,0.0979,0.0906,0.0968,0.1062,0.1061,0.1061,0.1061,0.106,0,-0.0087,-0.0031,0.0017,0.0042,0.0157,0.0242,0.0354,0.0553,0.0669,0.0896,0.0981,0.1122,0.119,0.1207,0.1181,0.1211,0.1162,0.1187,0.1006,0.0993,0.1122,0.1114,0.1191,0.1191,0.1191,0.1191,0.1191,0,-0.0077,-0.0045,0.0025,0.0055,0.0159,0.0258,0.0421,0.0566,0.0752,0.0853,0.104,0.1078,0.1213,0.1199,0.1182,0.1079,0.116,0.1018,0.0976,0.1148,0.1144,0.1122,0.1115,0.1189,0.1189,0.119,0.119,0,-0.01,-0.0058,-0.0007,0.0108,0.0152,0.0249,0.0431,0.0548,0.0738,0.0859,0.0925,0.1066,0.105,0.1088,0.1076,0.1049,0.0977,0.0902,0.1042,0.1008,0.0811,0.0809,0.076,0.0754,0.0749,0.0745,0.0741,0,-0.0105,-0.0086,0.0005,0.0049,0.0109,0.0249,0.0348,0.0544,0.0632,0.0787,0.0804,0.086,0.0916,0.0798,0.0829,0.0782,0.076,0.0755,0.0852,0.0806,0.0772,0.0777,0.0781,0.0733,0.0732,0.0731,0.0729,0,-0.0124,-0.0096,-0.006,0.0023,0.0113,0.0198,0.0333,0.0374,0.056,0.0688,0.0704,0.0724,0.0676,0.0685,0.0641,0.0597,0.0803,0.0704,0.0717,0.0808,0.0774,0.0745,0.0755,0.0712,0.0714,0.0716,0.0717,0,-0.0144,-0.0131,-0.0083,-0.0003,0.0076,0.0135,0.0216,0.0294,0.0396,0.0562,0.0504,0.0554,0.0619,0.0572,0.0494,0.0479,0.051,0.0559,0.0581,0.06,0.0572,0.0506,0.0325,0,0,0,0,0,-0.0151,-0.0141,-0.0102,-0.002,0.0045,0.0097,0.0191,0.0264,0.0377,0.0377,0.047,0.0417,0.0399,0.0396,0.0349,0.0378,0.0479,0.032,0.0539,0.0616,0.0636,0.0616,0,0,0,0,0,0,-0.0157,-0.0134,-0.0123,-0.0063,-0.0015,0.0059,0.0108,0.0179,0.0195,0.0304,0.0288,0.0387,0.0352,0.0415,0.034,0.0338,0.0467,0.0345,0.0344,0.0604,0.0623,0.0639,0.0625,0,0,0,0,0]},{"header":{"parameterUnit":"m.s-1","parameterCategory":2,"la1":30.2991,"la2":30.254,"lo1":-89.0895,"lo2":-89.0444,"dy":0.0017,"dx":0.0017,"nx":28,"ny":28,"refTime":"2025-06-03T09:00:00:Z","depth":"4","parameterNumber":3,"parameterNumberName":"V-component_of_CURRENTS"},"data":[0,0,0,0,0,0,0,0,0,0,0,0,0,0,0,0,0,0,0,0,0,0,0,0,0,0,0,0,0,0,0,0,0,0,0,0,0,0,0,0,0,0,0,0,0,0,0,0,0,0,0,0,0,0,0,0,0,0,0.0548,0.0548,0,0.0577,0.0578,0.0578,0.0648,0.0649,0.065,0.0651,0.0668,0.0667,0.0666,0,0,0,0,0,0,0,0,0,0,0,0,0,0.0524,0.0524,0.0548,0.0548,0.0548,0.0577,0.0578,0.0578,0.0648,0.0649,0.0651,0.0652,0.0668,0.0667,0.0666,0,0,0,0,0,0,0,0,0,0,0,0,0,0.0544,0.0524,0.0548,0.0585,0.0588,0.0577,0.0578,0.0578,0.0647,0.0649,0.0651,0.0653,0.0668,0.0667,0.0666,0.0622,0,0,0.0663,0.0662,0,0,0,0,0,0,0,0,0.0543,0.0545,0.0579,0.0582,0.0586,0.0609,0.0575,0.0592,0.0647,0.0627,0.0651,0.0654,0.0644,0.0645,0.065,0.0623,0.0624,0.0663,0.0662,0.0662,0.0661,0,0,0,0,0,0,0,0.0541,0.0544,0.0562,0.0579,0.0583,0.059,0.0595,0.0579,0.0626,0.0629,0.0633,0.0633,0.0646,0.0651,0.0651,0.0624,0.0663,0.0662,0.0661,0.0661,0.0583,0.0582,0,0,0,0,0,0,0.0533,0.0543,0.0561,0.0562,0.0566,0.0589,0.0595,0.0601,0.0627,0.0632,0.0631,0.0636,0.0652,0.0652,0.0651,0.0651,0.0662,0.0661,0.066,0.0584,0.0583,0.0581,0,0,0,0,0,0,0.0532,0.0534,0.056,0.0551,0.0555,0.0587,0.0594,0.0601,0.0643,0.0628,0.0634,0.067,0.0653,0.0653,0.0674,0.065,0.066,0.0659,0.0586,0.0584,0.0582,0.0617,0,0,0,0,0,0,0.0531,0.0534,0.0547,0.0551,0.0555,0.0571,0.0592,0.06,0.0636,0.0644,0.0662,0.0664,0.0655,0.0676,0.0673,0.0649,0.0658,0.0588,0.0585,0.0582,0.0618,0.0616,0.0615,0,0,0,0,0,0.0531,0.0541,0.0548,0.055,0.0568,0.0571,0.0575,0.0605,0.0637,0.0652,0.0676,0.0666,0.0655,0.0676,0.0672,0.0647,0.0589,0.0586,0.0583,0.0618,0.0617,0.0615,0,0,0,0,0,0,0.054,0.0548,0.0557,0.057,0.0577,0.0583,0.0602,0.0622,0.0653,0.0676,0.0673,0.0675,0.0674,0.0654,0.0677,0.061,0.0609,0.0605,0.0636,0.0635,0.0634,0.0639,0.0657,0,0,0,0,0,0.0543,0.0562,0.0559,0.0576,0.0579,0.0597,0.0608,0.0629,0.0648,0.0667,0.0686,0.068,0.0647,0.0646,0.0627,0.0607,0.0576,0.0577,0.0575,0.0575,0.0573,0.0506,0.0499,0.0571,0.0571,0.0571,0,0,0.0548,0.0561,0.0569,0.058,0.0592,0.0605,0.0611,0.0639,0.0668,0.0659,0.0722,0.0691,0.0643,0.0622,0.0615,0.0612,0.054,0.0571,0.0571,0.0569,0.0502,0.0495,0.0489,0.0568,0.0569,0.0569,0,0,0.0561,0.0582,0.0594,0.06,0.062,0.0635,0.065,0.0676,0.0707,0.0738,0.0723,0.0692,0.0683,0.0631,0.0599,0.0576,0.0541,0.0554,0.0552,0.0487,0.0481,0.0476,0.0443,0.0434,0.0548,0.0548,0.0548,0,0.0567,0.0589,0.0597,0.0608,0.0624,0.0654,0.0671,0.0697,0.0738,0.0744,0.0768,0.0703,0.0678,0.06,0.0586,0.0574,0.0542,0.057,0.0488,0.0482,0.0475,0.0443,0.0433,0.0549,0.0549,0.0549,0.0549,0,0.058,0.0603,0.0615,0.0647,0.0661,0.0687,0.071,0.0752,0.0795,0.0797,0.0769,0.0725,0.0673,0.064,0.0611,0.0526,0.0521,0.0503,0.0501,0.0471,0.0438,0.0427,0.0551,0.055,0.055,0.055,0,0,0.0576,0.0616,0.0623,0.0641,0.0689,0.0699,0.0753,0.0776,0.08,0.081,0.0799,0.0723,0.0685,0.0642,0.0581,0.0517,0.0449,0.0491,0.0487,0.0476,0.0324,0.0319,0.0306,0.0417,0.0414,0.0413,0.0326,0,0.059,0.0617,0.0642,0.0685,0.0697,0.0741,0.0785,0.0809,0.0831,0.0834,0.0759,0.0728,0.0688,0.0649,0.0575,0.0476,0.0418,0.0476,0.034,0.0336,0.0348,0.0291,0.0406,0.0318,0.0315,0.0313,0.0312,0,0.059,0.0614,0.0651,0.07,0.0711,0.0759,0.0818,0.0859,0.0857,0.0857,0.0797,0.0746,0.064,0.062,0.0449,0.0488,0.0409,0.0342,0.0337,0.031,0.0308,0.0345,0.0291,0.0293,0.0294,0.0296,0.0297,0,0.0574,0.0618,0.0658,0.0674,0.0736,0.0782,0.0841,0.0871,0.0898,0.0874,0.0857,0.0739,0.0675,0.0556,0.0417,0.043,0.0238,0.024,0.0165,0.0166,0.0187,0.0193,0.0124,0.0124,0.0124,0.0125,0.0125,0,0.0572,0.0599,0.0665,0.0686,0.0749,0.0794,0.0863,0.0899,0.092,0.0892,0.0867,0.0772,0.0653,0.0526,0.0413,0.0249,0.0233,0.0153,0.0129,0.0205,0.0215,0.018,0.0188,0.0121,0.0122,0.0123,0.0123,0,0.0541,0.0587,0.0633,0.0714,0.0747,0.0803,0.0905,0.094,0.0967,0.0924,0.0912,0.0796,0.0624,0.0514,0.0307,0.0244,0.0096,0.0045,0.0149,0.0135,0.0077,0.0087,-0.0038,-0.0039,-0.004,-0.0041,-0.0041,0,0.0526,0.0541,0.0645,0.0697,0.0753,0.0838,0.0902,0.0966,0.0963,0.0884,0.0825,0.0695,0.0588,0.0319,0.0203,0.0043,0.0017,-0.0012,0.0018,0.0064,0.0053,0.0066,0.0077,-0.0043,-0.0043,-0.0044,-0.0044,0,0.0483,0.0536,0.0577,0.069,0.078,0.0848,0.0914,0.0871,0.0879,0.0913,0.072,0.0598,0.0411,0.0243,0.0153,0.0016,0.0034,-0.0024,-0.0022,0.0007,0.0056,0.0049,0.0062,-0.0048,-0.0047,-0.0047,-0.0046,0,0.0457,0.0481,0.0565,0.0658,0.0756,0.0791,0.0833,0.0798,0.0797,0.0694,0.0593,0.0442,0.0371,0.0221,0.0087,0.0015,-0.0003,-0.0001,-0.0001,0.0002,0.0049,0.0119,-0.0002,0,0,0,0,0,0.0433,0.0456,0.0528,0.0615,0.0711,0.0789,0.0802,0.0819,0.0757,0.063,0.0621,0.0439,0.0258,0.0161,0.008,0.0062,-0.0015,-0.0033,-0.0012,-0.0068,-0.0063,-0.0015,0,0,0,0,0,0,0.0414,0.0474,0.0502,0.0562,0.0615,0.0718,0.0719,0.07,0.0608,0.0543,0.0437,0.0455,0.0271,0.0316,0.0091,0.0068,0.0075,-0.0089,-0.009,-0.007,-0.0066,-0.0063,-0.0012,0,0,0,0,0]}]]